ProjectID,Date,Electric Generation,Electric Utility Import,Facility Electric Load
,YYYY-MM-DD,kW,kW,kW
518,2017-09-01,0.0,,0.0
518,2017-09-02,0.0,,0.0
518,2017-09-03,0.0,,0.0
518,2017-09-04,0.0,,0.0
518,2017-09-05,0.0,,0.0
518,2017-09-06,0.0,,0.0
518,2017-09-07,0.0,,0.0
518,2017-09-08,0.0,,0.0
518,2017-09-09,0.0,,0.0
518,2017-09-10,0.0,,0.0
518,2017-09-11,0.0,,0.0
518,2017-09-12,0.0,,0.0
518,2017-09-13,0.0,,0.0
518,2017-09-14,0.0,,0.0
518,2017-09-15,0.0,,0.0
518,2017-09-16,0.0,,0.0
518,2017-09-17,0.0,,0.0
518,2017-09-18,0.0,,0.0
518,2017-09-19,0.0,,0.0
518,2017-09-20,0.0,,0.0
518,2017-09-21,0.0,,0.0
518,2017-09-22,0.0,,0.0
518,2017-09-23,0.0,,0.0
518,2017-09-24,0.0,,0.0
518,2017-09-25,0.0,,0.0
518,2017-09-26,0.0,,0.0
518,2017-09-27,0.0,,0.0
518,2017-09-28,236.29429166666668,,236.29429166666668
518,2017-09-29,420.3594166666667,,420.3594166666667
518,2017-09-30,134.187625,,134.187625
518,2017-10-01,562.3309166666667,,562.3309166666667
518,2017-10-02,591.570375,,591.570375
518,2017-10-03,574.6173333333334,,574.6173333333334
518,2017-10-04,442.539125,,442.539125
518,2017-10-05,518.9194166666667,,518.9194166666667
518,2017-10-06,99.18254166666667,,99.18254166666667
518,2017-10-07,217.99233333333333,,217.99233333333333
518,2017-10-08,194.156375,,194.156375
518,2017-10-09,172.148625,,172.148625
518,2017-10-10,353.42975,,353.42975
518,2017-10-11,62.22154166666667,,62.22154166666667
518,2017-10-12,198.20579166666667,,198.20579166666667
518,2017-10-13,313.51058333333333,,313.51058333333333
518,2017-10-14,235.23979166666666,,235.23979166666666
518,2017-10-15,470.5939166666667,,470.5939166666667
518,2017-10-16,152.21633333333332,,152.21633333333332
518,2017-10-17,550.875125,,550.875125
518,2017-10-18,527.1147083333334,,527.1147083333334
518,2017-10-19,489.0262083333334,,489.0262083333334
518,2017-10-20,538.6252083333333,,538.6252083333333
518,2017-10-21,402.0782916666667,,402.0782916666667
518,2017-10-22,375.1590416666666,,375.1590416666666
518,2017-10-23,319.9845833333333,,319.9845833333333
518,2017-10-24,281.05741666666665,,281.05741666666665
518,2017-10-25,332.54445833333335,,332.54445833333335
518,2017-10-26,352.4949583333334,,352.4949583333334
518,2017-10-27,435.55491666666666,,435.55491666666666
518,2017-10-28,341.22929166666665,,341.22929166666665
518,2017-10-29,26.909041666666667,,26.909041666666667
518,2017-10-30,193.20070833333332,,193.20070833333332
518,2017-10-31,103.70858333333332,,103.70858333333332
518,2017-11-01,49.718916666666665,,49.718916666666665
518,2017-11-02,111.492375,,111.492375
518,2017-11-03,42.20075,,42.20075
518,2017-11-04,212.250125,,212.250125
518,2017-11-05,79.52366666666667,,79.52366666666667
518,2017-11-06,51.65383333333333,,51.65383333333333
518,2017-11-07,73.03404166666667,,73.03404166666667
518,2017-11-08,466.27104166666663,,466.27104166666663
518,2017-11-09,280.58875,,280.58875
518,2017-11-10,131.77104166666666,,131.77104166666666
518,2017-11-11,442.1695833333333,,442.1695833333333
518,2017-11-12,375.39095833333334,,375.39095833333334
518,2017-11-13,41.651291666666665,,41.651291666666665
518,2017-11-14,110.07833333333333,,110.07833333333333
518,2017-11-15,377.64604166666663,,377.64604166666663
518,2017-11-16,125.146,,125.146
518,2017-11-17,277.679875,,277.679875
518,2017-11-18,24.104375,,24.104375
518,2017-11-19,11.620041666666665,,11.620041666666665
518,2017-11-20,49.721583333333335,,49.721583333333335
518,2017-11-21,222.44558333333336,,222.44558333333336
518,2017-11-22,47.59133333333333,,47.59133333333333
518,2017-11-23,116.75025,,116.75025
518,2017-11-24,368.3725416666667,,368.3725416666667
518,2017-11-25,62.13566666666667,,62.13566666666667
518,2017-11-26,46.10695833333333,,46.10695833333333
518,2017-11-27,110.76583333333333,,110.76583333333333
518,2017-11-28,336.93766666666664,,336.93766666666664
518,2017-11-29,107.81791666666668,,107.81791666666668
518,2017-11-30,275.0601666666667,,275.0601666666667
518,2017-12-01,61.47683333333333,,61.47683333333333
518,2017-12-02,97.63566666666667,,97.63566666666667
518,2017-12-03,225.06266666666667,,225.06266666666667
518,2017-12-04,251.93245833333333,,251.93245833333333
518,2017-12-05,26.04970833333333,,26.04970833333333
518,2017-12-06,264.9558333333333,,264.9558333333333
518,2017-12-07,77.66941666666666,,77.66941666666666
518,2017-12-08,143.63566666666665,,143.63566666666665
518,2017-12-09,80.13566666666667,,80.13566666666667
518,2017-12-10,115.44291666666668,,115.44291666666668
518,2017-12-11,10.338666666666667,,10.338666666666667
518,2017-12-12,5.781416666666666,,5.781416666666666
518,2017-12-13,42.893458333333335,,42.893458333333335
518,2017-12-14,34.466375,,34.466375
518,2017-12-15,154.43245833333333,,154.43245833333333
518,2017-12-16,30.505416666666665,,30.505416666666665
518,2017-12-17,61.98208333333333,,61.98208333333333
518,2017-12-18,39.36745833333333,,39.36745833333333
518,2017-12-19,132.30745833333333,,132.30745833333333
518,2017-12-20,4.883041666666666,,4.883041666666666
518,2017-12-21,190.27366666666668,,190.27366666666668
518,2017-12-22,0.12254166666666666,,0.12254166666666666
518,2017-12-23,10.859499999999999,,10.859499999999999
518,2017-12-24,6.646041666666666,,6.646041666666666
518,2017-12-25,75.86216666666667,,75.86216666666667
518,2017-12-26,198.54183333333333,,198.54183333333333
518,2017-12-27,65.044625,,65.044625
518,2017-12-28,46.054916666666664,,46.054916666666664
518,2017-12-29,70.63054166666667,,70.63054166666667
518,2017-12-30,31.528833333333335,,31.528833333333335
518,2017-12-31,18.851666666666667,,18.851666666666667
518,2018-01-01,24.213875,,24.213875
518,2018-01-02,59.55495833333333,,59.55495833333333
518,2018-01-03,252.67470833333334,,252.67470833333334
518,2018-01-04,18.92204166666667,,18.92204166666667
518,2018-01-05,84.14087500000001,,84.14087500000001
518,2018-01-06,75.22941666666667,,75.22941666666667
518,2018-01-07,77.98725,,77.98725
518,2018-01-08,26.942875,,26.942875
518,2018-01-09,18.867375,,18.867375
518,2018-01-10,327.4820416666667,,327.4820416666667
518,2018-01-11,124.388125,,124.388125
518,2018-01-12,92.12258333333334,,92.12258333333334
518,2018-01-13,11.8805,,11.8805
518,2018-01-14,62.64091666666667,,62.64091666666667
518,2018-01-15,79.34916666666668,,79.34916666666668
518,2018-01-16,14.067916666666667,,14.067916666666667
518,2018-01-17,10.344,,10.344
518,2018-01-18,35.34654166666667,,35.34654166666667
518,2018-01-19,85.88816666666666,,85.88816666666666
518,2018-01-20,335.8960416666667,,335.8960416666667
518,2018-01-21,122.94554166666667,,122.94554166666667
518,2018-01-22,55.61995833333333,,55.61995833333333
518,2018-01-23,92.97141666666666,,92.97141666666666
518,2018-01-24,17.843875,,17.843875
518,2018-01-25,319.2606666666667,,319.2606666666667
518,2018-01-26,429.7840416666666,,429.7840416666666
518,2018-01-27,106.56795833333332,,106.56795833333332
518,2018-01-28,370.0496666666666,,370.0496666666666
518,2018-01-29,217.67729166666666,,217.67729166666666
518,2018-01-30,86.31529166666667,,86.31529166666667
518,2018-01-31,83.95595833333333,,83.95595833333333
518,2018-02-01,163.70329166666667,,163.70329166666667
518,2018-02-02,20.752875,,20.752875
518,2018-02-03,232.23716666666667,,232.23716666666667
518,2018-02-04,56.588541666666664,,56.588541666666664
518,2018-02-05,239.92708333333334,,239.92708333333334
518,2018-02-06,120.66145833333333,,120.66145833333333
518,2018-02-07,1.7760416666666667,,1.7760416666666667
518,2018-02-08,66.13541666666667,,66.13541666666667
518,2018-02-09,37.59375,,37.59375
518,2018-02-10,54.276041666666664,,54.276041666666664
518,2018-02-11,139.46354166666666,,139.46354166666666
518,2018-02-12,162.25,,162.25
518,2018-02-13,465.890625,,465.890625
518,2018-02-14,308.9114583333333,,308.9114583333333
518,2018-02-15,240.203125,,240.203125
518,2018-02-16,28.723958333333332,,28.723958333333332
518,2018-02-17,298.25,,298.25
518,2018-02-18,165.82291666666666,,165.82291666666666
518,2018-02-19,145.0,,145.0
518,2018-02-20,138.09895833333334,,138.09895833333334
518,2018-02-21,203.25520833333334,,203.25520833333334
518,2018-02-22,26.197916666666668,,26.197916666666668
518,2018-02-23,18.885416666666668,,18.885416666666668
518,2018-02-24,126.23958333333333,,126.23958333333333
518,2018-02-25,93.84895833333333,,93.84895833333333
518,2018-02-26,521.5364583333334,,521.5364583333334
518,2018-02-27,501.6510416666667,,501.6510416666667
518,2018-02-28,427.8177083333333,,427.8177083333333
518,2018-03-01,85.828125,,85.828125
518,2018-03-02,0.041666666666666664,,0.041666666666666664
518,2018-03-03,27.567708333333332,,27.567708333333332
518,2018-03-04,259.28125,,259.28125
518,2018-03-05,250.4375,,250.4375
518,2018-03-06,467.265625,,467.265625
518,2018-03-07,47.260416666666664,,47.260416666666664
518,2018-03-08,297.4791666666667,,297.4791666666667
518,2018-03-09,268.2760416666667,,268.2760416666667
518,2018-03-10,194.23958333333334,,194.23958333333334
518,2018-03-11,227.703125,,227.703125
518,2018-03-12,375.5,,375.5
518,2018-03-13,6.104166666666667,,6.104166666666667
518,2018-03-14,9.291666666666666,,9.291666666666666
518,2018-03-15,296.6770833333333,,296.6770833333333
518,2018-03-16,254.91145833333334,,254.91145833333334
518,2018-03-17,416.2135416666667,,416.2135416666667
518,2018-03-18,616.0833333333334,,616.0833333333334
518,2018-03-19,642.5104166666666,,642.5104166666666
518,2018-03-20,602.6041666666666,,602.6041666666666
518,2018-03-21,463.1197916666667,,463.1197916666667
518,2018-03-22,623.7760416666666,,623.7760416666666
518,2018-03-23,618.21875,,618.21875
518,2018-03-24,624.3385416666666,,624.3385416666666
518,2018-03-25,620.9010416666666,,620.9010416666666
518,2018-03-26,649.5989583333334,,649.5989583333334
518,2018-03-27,296.8802083333333,,296.8802083333333
518,2018-03-28,197.78645833333334,,197.78645833333334
518,2018-03-29,140.45833333333334,,140.45833333333334
518,2018-03-30,109.609375,,109.609375
518,2018-03-31,603.8177083333334,,603.8177083333334
518,2018-04-01,369.6510416666667,,369.6510416666667
518,2018-04-02,617.5677083333334,,617.5677083333334
518,2018-04-03,82.38541666666667,,82.38541666666667
518,2018-04-04,228.22395833333334,,228.22395833333334
518,2018-04-05,376.7916666666667,,376.7916666666667
518,2018-04-06,307.015625,,307.015625
518,2018-04-07,320.2447916666667,,320.2447916666667
518,2018-04-08,314.1510416666667,,314.1510416666667
518,2018-04-09,573.5885416666666,,573.5885416666666
518,2018-04-10,344.640625,,344.640625
518,2018-04-11,292.265625,,292.265625
518,2018-04-12,138.24479166666666,,138.24479166666666
518,2018-04-13,131.95833333333334,,131.95833333333334
518,2018-04-14,143.953125,,143.953125
518,2018-04-15,111.32291666666667,,111.32291666666667
518,2018-04-16,144.60416666666666,,144.60416666666666
518,2018-04-17,138.10416666666666,,138.10416666666666
518,2018-04-18,128.765625,,128.765625
518,2018-04-19,218.125,,218.125
518,2018-04-20,178.97395833333334,,178.97395833333334
518,2018-04-21,670.6666666666666,,670.6666666666666
518,2018-04-22,670.3854166666666,,670.3854166666666
518,2018-04-23,666.0572916666666,,666.0572916666666
518,2018-04-24,616.1510416666666,,616.1510416666666
518,2018-04-25,163.58333333333334,,163.58333333333334
518,2018-04-26,176.65625,,176.65625
518,2018-04-27,306.8177083333333,,306.8177083333333
518,2018-04-28,271.703125,,271.703125
518,2018-04-29,138.54166666666666,,138.54166666666666
518,2018-04-30,234.546875,,234.546875
518,2018-05-01,530.2447916666666,,530.2447916666666
518,2018-05-02,595.2604166666666,,595.2604166666666
518,2018-05-03,298.9427083333333,,298.9427083333333
518,2018-05-04,296.9895833333333,,296.9895833333333
518,2018-05-05,597.078125,,597.078125
518,2018-05-06,262.640625,,262.640625
518,2018-05-07,513.5677083333334,,513.5677083333334
518,2018-05-08,662.40625,,662.40625
518,2018-05-09,535.1875,,535.1875
518,2018-05-10,227.3125,,227.3125
518,2018-05-11,596.3072916666666,,596.3072916666666
518,2018-05-12,136.61979166666666,,136.61979166666666
518,2018-05-13,615.0625,,615.0625
518,2018-05-14,511.7395833333333,,511.7395833333333
518,2018-05-15,240.95833333333334,,240.95833333333334
518,2018-05-16,560.7864583333334,,560.7864583333334
518,2018-05-17,588.2552083333334,,588.2552083333334
518,2018-05-18,656.890625,,656.890625
518,2018-05-19,154.89583333333334,,154.89583333333334
518,2018-05-20,201.359375,,201.359375
518,2018-05-21,670.3697916666666,,670.3697916666666
518,2018-05-22,144.47916666666666,,144.47916666666666
518,2018-05-23,583.7291666666666,,583.7291666666666
518,2018-05-24,661.4270833333334,,661.4270833333334
518,2018-05-25,610.4114583333334,,610.4114583333334
518,2018-05-26,474.1770833333333,,474.1770833333333
518,2018-05-27,123.97395833333333,,123.97395833333333
518,2018-05-28,471.5677083333333,,471.5677083333333
518,2018-05-29,623.5989583333334,,623.5989583333334
518,2018-05-30,623.15625,,623.15625
518,2018-05-31,242.15104166666666,,242.15104166666666
518,2018-06-01,427.6041666666667,,427.6041666666667
518,2018-06-02,436.5989583333333,,436.5989583333333
518,2018-06-03,246.74479166666666,,246.74479166666666
518,2018-06-04,287.5104166666667,,287.5104166666667
518,2018-06-05,296.4895833333333,,296.4895833333333
518,2018-06-06,308.7708333333333,,308.7708333333333
518,2018-06-07,481.8125,,481.8125
518,2018-06-08,579.4479166666666,,579.4479166666666
518,2018-06-09,502.4322916666667,,502.4322916666667
518,2018-06-10,665.703125,,665.703125
518,2018-06-11,668.4479166666666,,668.4479166666666
518,2018-06-12,646.2239583333334,,646.2239583333334
518,2018-06-13,299.3072916666667,,299.3072916666667
518,2018-06-14,189.08333333333334,,189.08333333333334
518,2018-06-15,616.7291666666666,,616.7291666666666
518,2018-06-16,649.28125,,649.28125
518,2018-06-17,630.28125,,630.28125
518,2018-06-18,407.9895833333333,,407.9895833333333
518,2018-06-19,601.6041666666666,,601.6041666666666
518,2018-06-20,370.2916666666667,,370.2916666666667
518,2018-06-21,609.8541666666666,,609.8541666666666
518,2018-06-22,555.6875,,555.6875
518,2018-06-23,227.86458333333334,,227.86458333333334
518,2018-06-24,224.33333333333334,,224.33333333333334
518,2018-06-25,638.1145833333334,,638.1145833333334
518,2018-06-26,664.6354166666666,,664.6354166666666
518,2018-06-27,146.57291666666666,,146.57291666666666
518,2018-06-28,307.5208333333333,,307.5208333333333
518,2018-06-29,655.6145833333334,,655.6145833333334
518,2018-06-30,624.0,,624.0
518,2018-07-01,618.2395833333334,,618.2395833333334
518,2018-07-02,498.3645833333333,,498.3645833333333
518,2018-07-03,594.6875,,594.6875
518,2018-07-04,638.1145833333334,,638.1145833333334
518,2018-07-05,441.8854166666667,,441.8854166666667
518,2018-07-06,464.2604166666667,,464.2604166666667
518,2018-07-07,657.3333333333334,,657.3333333333334
518,2018-07-08,653.5833333333334,,653.5833333333334
518,2018-07-09,652.0729166666666,,652.0729166666666
518,2018-07-10,543.96875,,543.96875
518,2018-07-11,658.6041666666666,,658.6041666666666
518,2018-07-12,639.09375,,639.09375
518,2018-07-13,618.96875,,618.96875
518,2018-07-14,376.46875,,376.46875
518,2018-07-15,602.3229166666666,,602.3229166666666
518,2018-07-16,437.2916666666667,,437.2916666666667
518,2018-07-17,357.9479166666667,,357.9479166666667
518,2018-07-18,619.1145833333334,,619.1145833333334
518,2018-07-19,653.8333333333334,,653.8333333333334
518,2018-07-20,646.4791666666666,,646.4791666666666
518,2018-07-21,583.6770833333334,,583.6770833333334
518,2018-07-22,418.7395833333333,,418.7395833333333
518,2018-07-23,422.59375,,422.59375
518,2018-07-24,183.96875,,183.96875
518,2018-07-25,169.89583333333334,,169.89583333333334
518,2018-07-26,602.7604166666666,,602.7604166666666
518,2018-07-27,408.4375,,408.4375
518,2018-07-28,420.6770833333333,,420.6770833333333
518,2018-07-29,573.53125,,573.53125
518,2018-07-30,413.7083333333333,,413.7083333333333
518,2018-07-31,283.2604166666667,,283.2604166666667
518,2018-08-01,254.125,,254.125
518,2018-08-02,353.84375,,353.84375
518,2018-08-03,184.17708333333334,,184.17708333333334
518,2018-08-04,595.3125,,595.3125
518,2018-08-05,592.96875,,592.96875
518,2018-08-06,551.7395833333334,,551.7395833333334
518,2018-08-07,296.1041666666667,,296.1041666666667
518,2018-08-08,279.03125,,279.03125
518,2018-08-09,506.1145833333333,,506.1145833333333
518,2018-08-10,469.8125,,469.8125
518,2018-08-11,273.4270833333333,,273.4270833333333
518,2018-08-12,407.9583333333333,,407.9583333333333
518,2018-08-13,199.33333333333334,,199.33333333333334
518,2018-08-14,135.38541666666666,,135.38541666666666
518,2018-08-15,575.71875,,575.71875
518,2018-08-16,488.5833333333333,,488.5833333333333
518,2018-08-17,294.1979166666667,,294.1979166666667
518,2018-08-18,157.35416666666666,,157.35416666666666
518,2018-08-19,420.5625,,420.5625
518,2018-08-20,576.8645833333334,,576.8645833333334
518,2018-08-21,236.28125,,236.28125
518,2018-08-22,291.28125,,291.28125
518,2018-08-23,557.53125,,557.53125
518,2018-08-24,527.3020833333334,,527.3020833333334
518,2018-08-25,439.59375,,439.59375
518,2018-08-26,322.8958333333333,,322.8958333333333
518,2018-08-27,299.5104166666667,,299.5104166666667
518,2018-08-28,550.5625,,550.5625
518,2018-08-29,483.7708333333333,,483.7708333333333
518,2018-08-30,429.4895833333333,,429.4895833333333
518,2018-08-31,299.3020833333333,,299.3020833333333
518,2018-09-01,433.8958333333333,,433.8958333333333
518,2018-09-02,406.3125,,406.3125
518,2018-09-03,383.2083333333333,,383.2083333333333
518,2018-09-04,536.0,,536.0
518,2018-09-05,550.1458333333334,,550.1458333333334
518,2018-09-06,306.7395833333333,,306.7395833333333
518,2018-09-07,427.125,,427.125
518,2018-09-08,286.7916666666667,,286.7916666666667
518,2018-09-09,232.55208333333334,,232.55208333333334
518,2018-09-10,98.32291666666667,,98.32291666666667
518,2018-09-11,174.05208333333334,,174.05208333333334
518,2018-09-12,379.4270833333333,,379.4270833333333
518,2018-09-13,574.1875,,574.1875
518,2018-09-14,394.9583333333333,,394.9583333333333
518,2018-09-15,524.6875,,524.6875
518,2018-09-16,517.6770833333334,,517.6770833333334
518,2018-09-17,422.2083333333333,,422.2083333333333
518,2018-09-18,334.1458333333333,,334.1458333333333
518,2018-09-19,453.1145833333333,,453.1145833333333
518,2018-09-20,439.9791666666667,,439.9791666666667
518,2018-09-21,522.4375,,522.4375
518,2018-09-22,395.7604166666667,,395.7604166666667
518,2018-09-23,596.4479166666666,,596.4479166666666
518,2018-09-24,544.3020833333334,,544.3020833333334
518,2018-09-25,152.01041666666666,,152.01041666666666
518,2018-09-26,132.54166666666666,,132.54166666666666
518,2018-09-27,335.0833333333333,,335.0833333333333
518,2018-09-28,255.08333333333334,,255.08333333333334
518,2018-09-29,442.5416666666667,,442.5416666666667
518,2018-09-30,187.44791666666666,,187.44791666666666
518,2018-10-01,49.854166666666664,,49.854166666666664
518,2018-10-02,112.27083333333333,,112.27083333333333
518,2018-10-03,112.38541666666667,,112.38541666666667
518,2018-10-04,105.96875,,105.96875
518,2018-10-05,539.3229166666666,,539.3229166666666
518,2018-10-06,242.86458333333334,,242.86458333333334
518,2018-10-07,153.07291666666666,,153.07291666666666
518,2018-10-08,300.1145833333333,,300.1145833333333
518,2018-10-09,349.8125,,349.8125
518,2018-10-10,461.1458333333333,,461.1458333333333
518,2018-10-11,71.69791666666667,,71.69791666666667
518,2018-10-12,205.82291666666666,,205.82291666666666
518,2018-10-13,165.32291666666666,,165.32291666666666
518,2018-10-14,423.8645833333333,,423.8645833333333
518,2018-10-15,108.47916666666667,,108.47916666666667
518,2018-10-16,422.84375,,422.84375
518,2018-10-17,163.625,,163.625
518,2018-10-18,434.03125,,434.03125
518,2018-10-19,453.9895833333333,,453.9895833333333
518,2018-10-20,251.05208333333334,,251.05208333333334
518,2018-10-21,116.48958333333333,,116.48958333333333
518,2018-10-22,91.71875,,91.71875
518,2018-10-23,242.16666666666666,,242.16666666666666
518,2018-10-24,139.46875,,139.46875
518,2018-10-25,64.84375,,64.84375
518,2018-10-26,139.0,,139.0
518,2018-10-27,25.979166666666668,,25.979166666666668
518,2018-10-28,100.97916666666667,,100.97916666666667
518,2018-10-29,98.9375,,98.9375
518,2018-10-30,388.7916666666667,,388.7916666666667
518,2018-10-31,166.54166666666666,,166.54166666666666
518,2018-11-01,43.28125,,43.28125
518,2018-11-02,119.07291666666667,,119.07291666666667
518,2018-11-03,103.14583333333333,,103.14583333333333
518,2018-11-04,217.71875,,217.71875
518,2018-11-05,58.875,,58.875
518,2018-11-06,91.44791666666667,,91.44791666666667
518,2018-11-07,155.26041666666666,,155.26041666666666
518,2018-11-08,146.40625,,146.40625
518,2018-11-09,31.427083333333332,,31.427083333333332
518,2018-11-10,285.3125,,285.3125
518,2018-11-11,139.32291666666666,,139.32291666666666
518,2018-11-12,270.4270833333333,,270.4270833333333
518,2018-11-13,32.0,,32.0
518,2018-11-14,100.86458333333333,,100.86458333333333
518,2018-11-15,80.85416666666667,,80.85416666666667
518,2018-11-16,11.489583333333334,,11.489583333333334
518,2018-11-17,70.16666666666667,,70.16666666666667
518,2018-11-18,98.57291666666667,,98.57291666666667
518,2018-11-19,194.19791666666666,,194.19791666666666
518,2018-11-20,87.95833333333333,,87.95833333333333
518,2018-11-21,45.322916666666664,,45.322916666666664
518,2018-11-22,73.57291666666667,,73.57291666666667
518,2018-11-23,271.8541666666667,,271.8541666666667
518,2018-11-24,138.38541666666666,,138.38541666666666
518,2018-11-25,60.270833333333336,,60.270833333333336
518,2018-11-26,23.458333333333332,,23.458333333333332
518,2018-11-27,12.65625,,12.65625
518,2018-11-28,10.09375,,10.09375
518,2018-11-29,13.583333333333334,,13.583333333333334
518,2018-11-30,22.03125,,22.03125
518,2018-12-01,162.69791666666666,,162.69791666666666
518,2018-12-02,64.47916666666667,,64.47916666666667
518,2018-12-03,38.489583333333336,,38.489583333333336
518,2018-12-04,18.677083333333332,,18.677083333333332
518,2018-12-05,187.15625,,187.15625
518,2018-12-06,87.20833333333333,,87.20833333333333
518,2018-12-07,113.80208333333333,,113.80208333333333
518,2018-12-08,26.822916666666668,,26.822916666666668
518,2018-12-09,218.78125,,218.78125
518,2018-12-10,120.89583333333333,,120.89583333333333
518,2018-12-11,79.39583333333333,,79.39583333333333
518,2018-12-12,76.75,,76.75
518,2018-12-13,219.85416666666666,,219.85416666666666
518,2018-12-14,87.96875,,87.96875
518,2018-12-15,50.520833333333336,,50.520833333333336
518,2018-12-16,33.364583333333336,,33.364583333333336
518,2018-12-17,18.479166666666668,,18.479166666666668
518,2018-12-18,171.66666666666666,,171.66666666666666
518,2018-12-19,258.8854166666667,,258.8854166666667
518,2018-12-20,191.5625,,191.5625
518,2018-12-21,140.5,,140.5
518,2018-12-22,4.833333333333333,,4.833333333333333
518,2018-12-23,17.916666666666668,,17.916666666666668
518,2018-12-24,64.03125,,64.03125
518,2018-12-25,13.375,,13.375
518,2018-12-26,5.604166666666667,,5.604166666666667
518,2018-12-27,52.75,,52.75
518,2018-12-28,30.3125,,30.3125
518,2018-12-29,44.770833333333336,,44.770833333333336
518,2018-12-30,27.59375,,27.59375
518,2018-12-31,91.91666666666667,,91.91666666666667
518,2019-01-01,10.875,,10.875
518,2019-01-02,241.33333333333334,,241.33333333333334
518,2019-01-03,7.125,,7.125
518,2019-01-04,219.85416666666666,,219.85416666666666
518,2019-01-05,253.70833333333334,,253.70833333333334
518,2019-01-06,35.395833333333336,,35.395833333333336
518,2019-01-07,119.52083333333333,,119.52083333333333
518,2019-01-08,97.59375,,97.59375
518,2019-01-09,57.552083333333336,,57.552083333333336
518,2019-01-10,72.59375,,72.59375
518,2019-01-11,160.38541666666666,,160.38541666666666
518,2019-01-12,338.2604166666667,,338.2604166666667
518,2019-01-13,371.0520833333333,,371.0520833333333